Retour au catalogue

COSMOS 2251 DEB

ActifLEO
NORAD 34963·DEBRIS·🇷🇺 Russia

Lancé Jun 16, 1993 depuis Plesetsk Cosmodrome

Loading…

Prochains Passages (prochaines 24 heures)

TLE

VieillissantSource: Space-Track

Époque: Sep 11, 2026, 17:23 UTC

1 34963U 93036AES 26254.72487986  .00003025  00000-0  72839-3 0  9998
2 34963  74.1670 252.3784 0040051   1.4252 358.7017 14.53219742907642

Suivez COSMOS 2251 DEB en temps réel avec AllMySat

Download on the App Store